Versailles, KY

9:07 PM EST on February 08, 2016 (GMT -0500)
North Versailles | | Change Station
CLOSE
Current Station
Personal Weather Station
Location: Versailles, KY
Elevation: 892 ft
Nearby Weather Stations
Active Advisory: Winter Weather Advisory

Elev 892 ft 38.06 °N, 84.74 °W | Updated 17 seconds ago

Overcast
Overcast
27.0 °F
Feels Like 21 °F
N
4.9
Wind Variable Wind from West
Gusts 4.9 mph

Today
High -- | Low -- °F
--% Chance of Precip.
Yesterday
High -- | Low -- °F
Precip. -- in
Pressure 29.77 in
Visibility 2.0 miles
Clouds Few 900 ft
Scattered Clouds 1600 ft
Overcast 3300 ft
Windchill 21 °F
Dew Point 23 °F
Humidity 86%
Rainfall 0.20 in
Snow Depth Not available.
7:37 AM 6:09 PM
New Moon, 0% visible
SPECI KLEX 090205Z 28012G24KT 2SM -SN BR FEW009 SCT016 OVC033 M03/M05 A2977 RMK AO2 P0000 T10281050
Pressure 29.77 in
Visibility 2.0 miles
Clouds Few 900 ft
Scattered Clouds 1600 ft
Overcast 3300 ft
Windchill 21 °F
Dew Point 23 °F
Humidity 86%
Rainfall 0.20 in
Snow Depth Not available.
7:37 AM 6:09 PM
New Moon, 0% visible
SPECI KLEX 090205Z 28012G24KT 2SM -SN BR FEW009 SCT016 OVC033 M03/M05 A2977 RMK AO2 P0000 T10281050

10-Day Weather Forecast

Almanac

Astronomy

Feb. 08, 2016 Rise Set
Actual Time
Civil Twilight
Nautical Twilight
Astronomical Twilight
Moon
Length of Visible Light
Length of Day
Tomorrow will be .
, % of the Moon is Illuminated

Today's Extremes

State Highs State Lows

Community

WunderPhotos

Upload Photos

1,891,527 photos uploaded!

WunderBlog® & News

Nearby

Air Quality

  Air Quality AQ Index Pollutant
Not available.

Snow Depth

Station Depth Elevation

Earthquake Activity

City Distance Mag. Time & Date
Minimum magnitude displayed is 2.5.

Coastal Water Temperatures

Place Temperature

Stations

Nearby Weather Stations

Station Location Temp. Windchill Dew Point Humidity Wind Precip. Elev Updated Type
                   

Watches & Warnings

Winter Weather Advisory
Issued: 1:54 PM CST Feb. 8, 2016 – National Weather Service

... Winter Weather Advisory remains in effect until 6 PM EST /5 PM
CST/ Tuesday...

* timing... late this afternoon through at least Tuesday evening.

* Main impact... periods of moderate to briefly heavy snow
showers will impact travel at times. Roads may become slick
and snow covered... especially secondary and untreated
surfaces.

* Other impacts... gusty winds along with moderate snow showers may
reduce visibility at times. Also wet roadways may become slick
overnight as temperatures drop.

Precautionary/preparedness actions...

Research shows that more traffic accidents occur with an inch or
less of snow... before drivers realize that traction is reduced.
Don't become a statistic... slow down and leave extra distance
between vehicles.



Rjs